[[{"header":{"parameterUnit":"m.s-1","parameterCategory":1,"la1":30.2991,"la2":30.254,"lo1":-89.0895,"lo2":-89.0444,"dy":0.0017,"dx":0.0017,"nx":28,"ny":28,"refTime":"2024-03-08T09:00:00:Z","depth":0,"parameterNumber":2,"parameterNumberName":"U-component_of_WINDS"},"data":[0,0,0,0,0,0,0,0,0,0,0,0,0,0,0,0,0,0,0,0,0,0,0,0,0,0,0,0,0,0,0,0,0,0,0,0,0,0,0,0,0,0,0,0,0,0,0,0,0,0,0,0,0,0,0,0,0,0,3.5996,3.5997,0,3.6052,3.6052,3.6053,3.6026,3.6024,3.6023,3.6022,3.6078,3.6081,3.6084,0,0,0,0,0,0,0,0,0,0,0,0,0,3.5867,3.587,3.5996,3.5997,3.5997,3.6052,3.6052,3.6053,3.6026,3.6024,3.6023,3.6021,3.6078,3.6081,3.6084,0,0,0,0,0,0,0,0,0,0,0,0,0,3.5923,3.587,3.5996,3.599,3.599,3.6052,3.6052,3.6053,3.6026,3.6024,3.6022,3.602,3.6076,3.6081,3.6085,3.6154,0,0,3.6098,3.61,0,0,0,0,0,0,0,0,3.592,3.5928,3.599,3.5991,3.5991,3.603,3.6028,3.6087,3.6027,3.6013,3.6021,3.6019,3.6064,3.6069,3.6084,3.6157,3.616,3.6098,3.6101,3.6103,3.6104,0,0,0,0,0,0,0,3.5916,3.5925,3.6018,3.5991,3.5992,3.5985,3.5991,3.6039,3.605,3.6014,3.6012,3.6019,3.6064,3.608,3.6085,3.616,3.6098,3.6102,3.6105,3.6106,3.6295,3.6297,0,0,0,0,0,0,3.5912,3.5922,3.6016,3.602,3.5949,3.599,3.5996,3.6019,3.6049,3.6052,3.6021,3.6017,3.6074,3.608,3.6087,3.6172,3.6103,3.6107,3.6109,3.6293,3.6296,3.6298,0,0,0,0,0,0,3.591,3.5921,3.6014,3.597,3.5982,3.5994,3.6021,3.6022,3.6038,3.6054,3.6056,3.6036,3.6073,3.6081,3.6138,3.6173,3.6109,3.6113,3.629,3.6294,3.6297,3.6341,0,0,0,0,0,0,3.5906,3.592,3.5946,3.5971,3.5984,3.6064,3.6023,3.6024,3.6046,3.6042,3.6069,3.6071,3.6072,3.6132,3.6143,3.6178,3.6116,3.6287,3.6291,3.6296,3.6336,3.6345,3.6353,0,0,0,0,0,3.5901,3.5956,3.5948,3.5959,3.6017,3.6066,3.6073,3.6073,3.6048,3.6075,3.6086,3.607,3.6168,3.6138,3.615,3.6187,3.6284,3.629,3.6295,3.6332,3.6344,3.6353,0,0,0,0,0,0,3.5934,3.5959,3.595,3.6014,3.6038,3.6061,3.6095,3.6084,3.6115,3.6111,3.6108,3.6115,3.6174,3.6186,3.6153,3.6257,3.6223,3.6231,3.6247,3.6258,3.6266,3.6262,3.6119,0,0,0,0,0,3.5949,3.5986,3.6006,3.6061,3.6073,3.6082,3.6103,3.6101,3.6125,3.6135,3.615,3.6175,3.6211,3.6235,3.6269,3.6338,3.6344,3.637,3.6378,3.6385,3.6392,3.6431,3.6443,3.6316,3.6316,3.6316,0,0,3.5979,3.5998,3.6021,3.6068,3.6086,3.6125,3.6091,3.6133,3.6162,3.6142,3.6197,3.6209,3.6236,3.63,3.6329,3.6312,3.6429,3.6392,3.6398,3.6401,3.6438,3.645,3.646,3.632,3.6319,3.6319,0,0,3.6055,3.6072,3.612,3.614,3.6168,3.6174,3.6186,3.6211,3.6219,3.6274,3.626,3.6295,3.6357,3.6378,3.6396,3.6483,3.647,3.6494,3.6538,3.6576,3.6586,3.6595,3.6626,3.6638,3.6501,3.6501,3.6501,0,3.6089,3.6147,3.6146,3.6191,3.6212,3.6196,3.6245,3.6264,3.6302,3.6318,3.6299,3.6378,3.6395,3.6464,3.6485,3.6501,3.6515,3.649,3.6585,3.6594,3.6602,3.6632,3.6644,3.6504,3.6503,3.6503,3.6503,0,3.6189,3.6229,3.6265,3.6303,3.6328,3.6375,3.6382,3.6408,3.6404,3.6412,3.6469,3.649,3.6529,3.6545,3.6541,3.6614,3.6603,3.6585,3.655,3.6617,3.6645,3.6656,3.6508,3.6507,3.6506,3.6505,0,0,3.6285,3.6323,3.6336,3.6354,3.6385,3.6417,3.6463,3.6502,3.6525,3.6552,3.6592,3.6646,3.663,3.6651,3.6649,3.6683,3.6751,3.666,3.6661,3.6677,3.6834,3.6847,3.6861,3.6743,3.6745,3.6747,3.6831,0,3.6363,3.6444,3.6446,3.652,3.6558,3.6545,3.6586,3.661,3.6619,3.6654,3.6664,3.6703,3.6678,3.6691,3.6723,3.6736,3.6782,3.673,3.678,3.6782,3.6773,3.6875,3.6889,3.6968,3.6842,3.6844,3.6846,0,3.6464,3.6496,3.6575,3.6602,3.6618,3.6655,3.6691,3.6724,3.6752,3.6756,3.6781,3.6776,3.6824,3.6789,3.6856,3.682,3.6841,3.685,3.6853,3.6857,3.6817,3.6882,3.6993,3.7005,3.6863,3.6861,3.686,0,3.6527,3.659,3.6645,3.6661,3.6694,3.672,3.6735,3.6761,3.6784,3.6816,3.6832,3.6869,3.6889,3.6919,3.6924,3.6897,3.6991,3.6956,3.6997,3.6997,3.7017,3.7015,3.7132,3.7031,3.703,3.703,3.703,0,3.6614,3.6663,3.6674,3.6708,3.6763,3.6765,3.6819,3.6832,3.6855,3.6892,3.6883,3.6918,3.6923,3.6959,3.6963,3.7019,3.7028,3.7034,3.7034,3.7035,3.7034,3.7048,3.7042,3.7033,3.7033,3.7032,3.7032,0,3.6693,3.6702,3.6762,3.6789,3.6798,3.6837,3.686,3.6893,3.6903,3.695,3.6961,3.6976,3.7018,3.7026,3.7076,3.708,3.7146,3.7141,3.7137,3.7136,3.7177,3.7173,3.7307,3.7325,3.7211,3.7212,3.7213,0,3.6748,3.6785,3.6817,3.6841,3.6858,3.6897,3.6922,3.6926,3.6951,3.6987,3.7016,3.7058,3.7091,3.7161,3.7176,3.7215,3.7211,3.7255,3.7216,3.7216,3.7212,3.7209,3.7214,3.7262,3.7263,3.7264,3.7265,0,3.6845,3.6848,3.6883,3.6921,3.6951,3.6981,3.7009,3.703,3.7038,3.7067,3.7111,3.7137,3.719,3.7231,3.7271,3.7287,3.7278,3.7278,3.7289,3.7289,3.7286,3.7289,3.7157,3.7274,3.7273,3.7273,3.7272,3.7272,3.6913,3.6946,3.6974,3.7015,3.7037,3.7064,3.7097,3.7111,3.7148,3.719,3.7191,3.7239,3.7267,3.7319,3.7338,3.7376,3.7362,3.7379,3.7383,3.7387,3.7391,3.728,3.7383,3.7383,3.7383,3.7383,3.7382,0,3.7009,3.7027,3.7064,3.7105,3.7137,3.7127,3.7158,3.7186,3.7228,3.7256,3.7289,3.7341,3.7382,3.7401,3.7442,3.7469,3.7466,3.748,3.7478,3.7482,3.7401,3.7387,3.7482,3.7482,3.7482,3.7482,3.7482,3.7482,3.7063,3.7119,3.7126,3.7193,3.7211,3.7258,3.7277,3.7303,3.7325,3.7382,3.7417,3.7429,3.7454,3.7497,3.7535,3.7539,3.7555,3.7571,3.7574,3.7498,3.7487,3.7478,3.7465,3.7574,3.7574,3.7651,3.7652,3.7653]},{"header":{"parameterUnit":"m.s-1","parameterCategory":1,"la1":30.2991,"la2":30.254,"lo1":-89.0895,"lo2":-89.0444,"dy":0.0017,"dx":0.0017,"nx":28,"ny":28,"refTime":"2024-03-08T09:00:00:Z","depth":0,"parameterNumber":3,"parameterNumberName":"V-component_of_WINDS"},"data":[0,0,0,0,0,0,0,0,0,0,0,0,0,0,0,0,0,0,0,0,0,0,0,0,0,0,0,0,0,0,0,0,0,0,0,0,0,0,0,0,0,0,0,0,0,0,0,0,0,0,0,0,0,0,0,0,0,0,-7.4839,-7.484,0,-7.5009,-7.5011,-7.5013,-7.4963,-7.496,-7.4956,-7.4953,-7.5126,-7.5134,-7.5141,0,0,0,0,0,0,0,0,0,0,0,0,0,-7.4469,-7.4476,-7.4838,-7.4841,-7.4843,-7.5009,-7.5011,-7.5014,-7.4964,-7.496,-7.4955,-7.4951,-7.5123,-7.5133,-7.5142,0,0,0,0,0,0,0,0,0,0,0,0,0,-7.4633,-7.4478,-7.4838,-7.4838,-7.484,-7.5008,-7.5011,-7.5014,-7.4965,-7.496,-7.4954,-7.4949,-7.512,-7.5132,-7.5143,-7.5322,0,0,-7.5179,-7.5185,0,0,0,0,0,0,0,0,-7.4624,-7.4647,-7.4836,-7.4838,-7.4841,-7.496,-7.4944,-7.5117,-7.4966,-7.4917,-7.4953,-7.4947,-7.5075,-7.509,-7.5133,-7.533,-7.5337,-7.518,-7.5188,-7.5193,-7.5196,0,0,0,0,0,0,0,-7.4613,-7.4639,-7.4906,-7.4839,-7.4842,-7.4829,-7.4847,-7.4977,-7.5023,-7.4921,-7.4918,-7.4939,-7.5075,-7.5122,-7.5137,-7.534,-7.518,-7.5191,-7.5198,-7.5203,-7.5693,-7.5699,0,0,0,0,0,0,-7.46,-7.463,-7.49,-7.4911,-7.4717,-7.484,-7.486,-7.4927,-7.5022,-7.5031,-7.4943,-7.4936,-7.5105,-7.5123,-7.5143,-7.536,-7.5193,-7.5204,-7.521,-7.5687,-7.5694,-7.5701,0,0,0,0,0,0,-7.4592,-7.4625,-7.4894,-7.477,-7.4803,-7.4852,-7.4928,-7.4933,-7.498,-7.5039,-7.5046,-7.4983,-7.5101,-7.5126,-7.5278,-7.5365,-7.5209,-7.522,-7.568,-7.5689,-7.5697,-7.5793,0,0,0,0,0,0,-7.4582,-7.4622,-7.469,-7.4772,-7.481,-7.5027,-7.4933,-7.494,-7.5001,-7.4993,-7.5078,-7.5087,-7.5099,-7.5261,-7.529,-7.5378,-7.5229,-7.5672,-7.5684,-7.5695,-7.5782,-7.5804,-7.5823,0,0,0,0,0,-7.4569,-7.471,-7.4694,-7.4727,-7.4897,-7.5032,-7.5053,-7.5065,-7.5008,-7.5077,-7.5115,-7.5084,-7.5351,-7.5277,-7.5309,-7.5402,-7.5667,-7.5681,-7.5694,-7.5773,-7.58,-7.5822,0,0,0,0,0,0,-7.4636,-7.472,-7.4704,-7.4875,-7.4947,-7.5023,-7.511,-7.5092,-7.5181,-7.5169,-7.5179,-7.5199,-7.5355,-7.5393,-7.531,-7.5581,-7.55,-7.5521,-7.555,-7.5576,-7.5595,-7.5583,-7.5239,0,0,0,0,0,-7.4671,-7.4774,-7.4842,-7.4987,-7.5023,-7.5061,-7.512,-7.5123,-7.5197,-7.5227,-7.5276,-7.5348,-7.5448,-7.5514,-7.5609,-7.5788,-7.5806,-7.5868,-7.5888,-7.5904,-7.5922,-7.6021,-7.6049,-7.5745,-7.5744,-7.5744,0,0,-7.4744,-7.4803,-7.4867,-7.5002,-7.5057,-7.5164,-7.5087,-7.5202,-7.5281,-7.5244,-7.5391,-7.543,-7.5511,-7.5678,-7.5754,-7.5715,-7.601,-7.5921,-7.5934,-7.5943,-7.6037,-7.6066,-7.6092,-7.5754,-7.5752,-7.5751,0,0,-7.4932,-7.4986,-7.5114,-7.5171,-7.5257,-7.5282,-7.5312,-7.5392,-7.5416,-7.5564,-7.5539,-7.5633,-7.5805,-7.5865,-7.5918,-7.613,-7.6105,-7.6161,-7.6266,-7.6362,-7.6386,-7.6408,-7.6484,-7.6512,-7.6178,-7.6178,-7.6178,0,-7.5011,-7.5171,-7.5181,-7.53,-7.536,-7.5333,-7.5462,-7.5517,-7.563,-7.5672,-7.5627,-7.5844,-7.5897,-7.6077,-7.613,-7.6173,-7.6209,-7.6151,-7.6382,-7.6404,-7.6424,-7.6497,-7.6526,-7.6184,-7.6184,-7.6183,-7.6182,0,-7.5266,-7.5377,-7.5469,-7.558,-7.5651,-7.5774,-7.5803,-7.5874,-7.5871,-7.59,-7.6051,-7.6114,-7.6222,-7.6265,-7.6263,-7.6447,-7.642,-7.6379,-7.6298,-7.6459,-7.6528,-7.6556,-7.6193,-7.6191,-7.6189,-7.6188,0,0,-7.55,-7.5615,-7.5649,-7.57,-7.5793,-7.5879,-7.6002,-7.6109,-7.617,-7.6248,-7.6351,-7.6498,-7.6462,-7.6522,-7.6526,-7.661,-7.6776,-7.6559,-7.6561,-7.6598,-7.6984,-7.7015,-7.7047,-7.676,-7.6766,-7.677,-7.6977,0,-7.5696,-7.5912,-7.5926,-7.6121,-7.6225,-7.6201,-7.6308,-7.6377,-7.6408,-7.65,-7.6533,-7.6638,-7.6581,-7.6617,-7.67,-7.6738,-7.6854,-7.6723,-7.6857,-7.6861,-7.6838,-7.7083,-7.7116,-7.7309,-7.7004,-7.7009,-7.7012,0,-7.5954,-7.6042,-7.6249,-7.6329,-7.6373,-7.6469,-7.6569,-7.6657,-7.6735,-7.6751,-7.682,-7.6813,-7.6938,-7.6854,-7.7028,-7.6939,-7.6994,-7.7021,-7.7029,-7.7042,-7.6947,-7.7104,-7.737,-7.74,-7.7055,-7.7051,-7.7048,0,-7.6105,-7.6275,-7.6421,-7.6465,-7.6562,-7.663,-7.6674,-7.6747,-7.6811,-7.6898,-7.694,-7.704,-7.7095,-7.7173,-7.7193,-7.7129,-7.7367,-7.7283,-7.7385,-7.7385,-7.7436,-7.7433,-7.7716,-7.7471,-7.747,-7.747,-7.7469,0,-7.6324,-7.6451,-7.6491,-7.6581,-7.6724,-7.6738,-7.6878,-7.6917,-7.6983,-7.708,-7.7065,-7.7156,-7.7177,-7.7273,-7.7289,-7.7431,-7.7456,-7.7473,-7.7476,-7.7475,-7.7473,-7.7512,-7.7499,-7.7477,-7.7476,-7.7474,-7.7473,0,-7.6517,-7.6549,-7.6706,-7.6786,-7.6809,-7.6911,-7.6979,-7.7065,-7.7094,-7.7218,-7.7248,-7.7294,-7.7406,-7.7434,-7.7566,-7.7578,-7.7746,-7.7736,-7.772,-7.772,-7.782,-7.7811,-7.8139,-7.8183,-7.7908,-7.791,-7.7913,0,-7.6654,-7.6752,-7.6843,-7.6908,-7.6954,-7.7058,-7.7124,-7.7142,-7.7211,-7.7308,-7.7384,-7.7494,-7.7583,-7.7763,-7.7808,-7.791,-7.7903,-7.8011,-7.7918,-7.7915,-7.7906,-7.79,-7.7911,-7.8029,-7.8032,-7.8034,-7.8036,0,-7.6896,-7.6907,-7.7002,-7.7105,-7.7184,-7.7265,-7.7342,-7.7396,-7.7425,-7.7503,-7.7618,-7.7688,-7.7825,-7.7935,-7.8038,-7.8082,-7.8065,-7.8065,-7.8094,-7.8094,-7.8082,-7.8091,-7.7769,-7.8057,-7.8055,-7.8054,-7.8052,-7.8052,-7.7066,-7.7153,-7.7231,-7.7338,-7.7399,-7.7472,-7.7558,-7.7598,-7.7695,-7.7808,-7.7813,-7.7939,-7.8015,-7.8152,-7.8203,-7.8301,-7.8268,-7.831,-7.832,-7.8331,-7.834,-7.8066,-7.8319,-7.8319,-7.8318,-7.8318,-7.8317,0,-7.7308,-7.7357,-7.7456,-7.7565,-7.765,-7.7627,-7.7712,-7.7784,-7.7895,-7.7969,-7.8057,-7.819,-7.8297,-7.8352,-7.8458,-7.8526,-7.8521,-7.8554,-7.8549,-7.856,-7.8363,-7.8328,-7.8556,-7.8556,-7.8556,-7.8556,-7.8556,-7.8556,-7.7443,-7.7589,-7.761,-7.7786,-7.7834,-7.7958,-7.8008,-7.8076,-7.8135,-7.8284,-7.8374,-7.8408,-7.8475,-7.8586,-7.8683,-7.8696,-7.8736,-7.8774,-7.8783,-7.8598,-7.8573,-7.855,-7.8517,-7.8782,-7.8782,-7.8972,-7.8974,-7.8975]}]]